Middletown, PA

10:29 AM EDT on April 23, 2018 (GMT -0400)
Harrisburg International

Weather History for KMDT - March, 2013

Change the Weather History Date:

Wednesday, March 6, 2013

  Actual Average Record
Temperature  
Mean Temperature 38 °F 38 °F  
Max Temperature 43 °F 47 °F 72 °F (1946)
Min Temperature 33 °F 30 °F 0 °F (2015)
Degree Days  
Heating Degree Days 27 27  
Month to date heating degree days 178 165  
Since 1 July heating degree days 3969 4153  
Cooling Degree Days 0 0  
Month to date cooling degree days 0 0  
Year to date cooling degree days 0 0  
Moisture  
Dew Point 30 °F    
Average Humidity 73    
Maximum Humidity 89    
Minimum Humidity 57    
Precipitation  
Precipitation 0.21 in 0.10 in 2.27 in (2011)
Month to date precipitation 0.21 0.55  
Year to date precipitation 5.16 5.82  
Snow  
Snow T in 0.20 in 9.40 in (1989)
Month to date snowfall T 1.5  
Since 1 July snowfall 13.3 26.5  
Snow Depth 0.00 in    
Sea Level Pressure  
Sea Level Pressure 29.84 in    
Wind  
Wind Speed 11 mph (NE)    
Max Wind Speed 23 mph    
Max Gust Speed 33 mph    
Visibility 7 miles    
Events Rain , Snow    
T = Trace of Precipitation, MM = Missing Value Source: NWS Daily Summary

Daily Weather History Graph

Daily Weather History Graph

Search for Another Location

Airport or City:

Astronomy

Mar. 06, 2013 Rise Set
Actual Time 6:32 AM EST 6:04 PM EST
Civil Twilight 6:05 AM EST 6:31 PM EST
Nautical Twilight 5:34 AM EST 7:03 PM EST
Astronomical Twilight 5:02 AM EST 7:34 PM EST
Moon 2:40 AM EST (3/6) 12:43 PM EST (3/6)
Length of Visible Light 12h 26m
Length of Day
11h 32m
Waning Crescent, 30% of the Moon is Illuminated
Mar 6
Waning Crescent
Mar 11
New
Mar 19
First Quarter
Mar 27
Full
Apr 3
Last Quarter

Hourly Weather History & Observations

Time (EST) Temp. Windchill Dew Point Humidity Pressure Visibility Wind Dir Wind Speed Gust Speed Precip Events Conditions
12:56 AM 35.1 °F 27.9 °F 27.0 °F 72% 29.86 in 10.0 mi East 9.2 mph - N/A   Overcast
1:56 AM 35.1 °F 26.9 °F 25.0 °F 67% 29.84 in 10.0 mi East 11.5 mph 17.3 mph N/A   Overcast
2:56 AM 36.0 °F 26.7 °F 27.0 °F 70% 29.80 in 10.0 mi East 15.0 mph 20.7 mph N/A   Overcast
3:56 AM 36.0 °F 27.5 °F 27.0 °F 70% 29.78 in 9.0 mi East 12.7 mph 23.0 mph 0.00 in Snow Light Snow
4:15 AM 35.6 °F 27.5 °F 28.4 °F 75% 29.77 in 4.0 mi East 11.5 mph 20.7 mph 0.00 in Snow Light Snow
4:30 AM 35.6 °F 26.2 °F 30.2 °F 81% 29.78 in 2.0 mi East 15.0 mph 21.9 mph 0.00 in Snow Light Snow
4:56 AM 34.0 °F 25.0 °F 30.9 °F 89% 29.79 in 2.5 mi ESE 12.7 mph - 0.02 in Snow Light Snow
5:22 AM 35.6 °F 28.0 °F 30.2 °F 81% 29.77 in 4.0 mi East 10.4 mph 21.9 mph 0.02 in Rain , Snow Light Snow
5:56 AM 34.0 °F 26.6 °F 30.9 °F 89% 29.77 in 4.0 mi ENE 9.2 mph - 0.04 in Rain , Snow Light Snow
6:56 AM 35.1 °F 27.4 °F 30.9 °F 85% 29.78 in 5.0 mi ENE 10.4 mph - 0.04 in Rain , Snow Light Snow
7:15 AM 35.6 °F 28.0 °F 30.2 °F 81% 29.78 in 3.0 mi ENE 10.4 mph 16.1 mph 0.01 in Rain , Snow Light Snow
7:24 AM 33.8 °F 26.4 °F 30.2 °F 87% 29.78 in 2.0 mi NE 9.2 mph - 0.02 in Snow Light Snow
7:35 AM 33.8 °F 26.4 °F 30.2 °F 87% 29.78 in 1.2 mi NE 9.2 mph - 0.04 in Snow Light Snow
7:56 AM 33.1 °F 26.1 °F 30.9 °F 92% 29.80 in 1.2 mi NE 8.1 mph - 0.06 in Snow Light Snow
8:02 AM 33.8 °F 26.4 °F 30.2 °F 87% 29.78 in 1.5 mi NE 9.2 mph - 0.00 in Snow Light Snow
8:13 AM 33.8 °F 27.7 °F 32.0 °F 93% 29.78 in 2.0 mi NE 6.9 mph - 0.01 in Snow Light Snow
8:32 AM 33.8 °F 27.0 °F 32.0 °F 93% 29.79 in 4.0 mi NE 8.1 mph - 0.01 in Snow Light Snow
8:34 AM 33.8 °F 27.0 °F 32.0 °F 93% 29.79 in 4.0 mi NE 8.1 mph - 0.01 in Snow Light Snow
8:56 AM 35.6 °F 28.6 °F 32.0 °F 87% 29.79 in 4.0 mi NE 9.2 mph 16.1 mph N/A Rain , Snow Light Rain
9:13 AM 35.6 °F 26.6 °F 32.0 °F 87% 29.79 in 6.0 mi NE 13.8 mph 19.6 mph 0.01 in Rain , Snow Light Rain
9:56 AM 37.0 °F 30.4 °F 32.0 °F 82% 29.82 in 10.0 mi NE 9.2 mph - 0.01 in   Light Drizzle
10:56 AM 37.9 °F 30.5 °F 32.0 °F 79% 29.83 in 8.0 mi NE 11.5 mph 24.2 mph 0.00 in Rain Light Rain
11:11 AM 37.4 °F 29.8 °F 32.0 °F 81% 29.82 in 10.0 mi NNE 11.5 mph 19.6 mph 0.01 in Rain Light Rain
11:56 AM 39.0 °F 29.9 °F 30.9 °F 73% 29.84 in 10.0 mi NNE 17.3 mph 25.3 mph 0.01 in Rain Light Rain
12:56 PM 39.9 °F 31.4 °F 30.9 °F 70% 29.83 in 10.0 mi NNE 16.1 mph 25.3 mph 0.00 in Rain Light Rain
1:56 PM 41.0 °F 33.1 °F 30.0 °F 65% 29.85 in 10.0 mi NE 15.0 mph 25.3 mph 0.00 in Rain Light Rain
2:24 PM 41.0 °F 32.8 °F 32.0 °F 70% 29.84 in 10.0 mi ENE 16.1 mph 31.1 mph 0.00 in Rain Light Rain
2:56 PM 39.9 °F 32.5 °F 32.0 °F 73% 29.86 in 10.0 mi East 12.7 mph 25.3 mph 0.01 in Rain Light Rain
3:56 PM 41.0 °F 36.4 °F 32.0 °F 70% 29.88 in 10.0 mi ENE 6.9 mph - 0.00 in Rain Light Rain
4:56 PM 43.0 °F 37.2 °F 30.0 °F 60% 29.91 in 10.0 mi NNE 10.4 mph 19.6 mph 0.00 in Rain Light Rain
5:56 PM 42.1 °F 34.9 °F 28.9 °F 60% 29.95 in 10.0 mi NE 13.8 mph 25.3 mph 0.00 in   Overcast
6:56 PM 42.1 °F 37.7 °F 28.0 °F 58% 29.98 in 10.0 mi NE 6.9 mph 16.1 mph N/A   Overcast
7:56 PM 41.0 °F 36.4 °F 28.9 °F 62% 29.99 in 10.0 mi North 6.9 mph - N/A   Overcast
8:56 PM 41.0 °F 36.4 °F 28.9 °F 62% 29.99 in 10.0 mi North 6.9 mph - N/A   Mostly Cloudy
9:56 PM 39.0 °F 34.8 °F 28.0 °F 65% 30.00 in 10.0 mi NNW 5.8 mph - N/A   Mostly Cloudy
10:56 PM 39.0 °F 32.3 °F 28.0 °F 65% 30.01 in 10.0 mi North 10.4 mph - N/A   Overcast
11:56 PM 39.0 °F 32.3 °F 27.0 °F 62% 30.02 in 10.0 mi North 10.4 mph - N/A   Overcast